Stations météo

réclame
Mon MeteoGroup
Cap Bear, France (7749): Température de l'air & dewpoint: 22.05.2018 07:00:00 - 28.05.2018 07:00:00 (CEST)Cap Bear, France (7749): Vitesse du vent & gusts: 22.05.2018 07:00:00 - 28.05.2018 07:00:00 (CEST)Cap Bear, France (7749): Direction du vent: 22.05.2018 07:00:00 - 28.05.2018 07:00:00 (CEST)Cap Bear, France (7749): reduced air pressure: 22.05.2018 07:00:00 - 28.05.2018 07:00:00 (CEST)Cap Bear, France (7749): visibility: 22.05.2018 07:00:00 - 28.05.2018 07:00:00 (CEST)Cap Bear, France (7749): Quantités de précipitations: 22.05.2018 07:00:00 - 28.05.2018 07:00:00 (CEST)
Date & Time tt [°C] td [°C] ff [km/h] ff [knt] fx [km/h] fx [knt] dd ppp [hPa] vv [km] rr [mm]
28.05.2018 07:00:00 18,7 14,0 34 18 46 25 NW 1012,4 - 0,0
28.05.2018 06:00:00 19,2 14,9 19 10 29 16 NW 1012,6 - 0,0
28.05.2018 05:00:00 19,9 13,1 23 12 30 16 NW 1012,4 20 0,0
28.05.2018 04:00:00 19,4 15,5 19 10 35 19 NW 1012,6 - 0,0
28.05.2018 03:00:00 19,9 13,8 27 15 40 21 WNW 1012,6 - 0,0
28.05.2018 02:00:00 19,5 14,7 30 16 40 22 NW 1013,5 - 0,0
28.05.2018 01:00:00 19,7 15,3 28 15 50 27 NW 1014,3 - 0,0
28.05.2018 00:00:00 19,0 17,0 30 16 42 23 NW 1014,5 - 0,0
27.05.2018 23:00:00 18,7 16,7 31 17 36 20 NNE 1015,1 - 0,0
27.05.2018 22:00:00 19,1 15,6 22 12 37 20 N 1014,6 - 0,0
27.05.2018 21:00:00 19,2 15,7 19 10 25 14 NNW 1013,6 - 0,0
27.05.2018 20:00:00 20,0 16,8 9 5 10 6 N 1013,1 - 0,0
27.05.2018 19:00:00 21,9 16,8 2 1 13 7 NNW 1012,6 - 0,0
27.05.2018 18:00:00 20,0 18,1 9 5 11 6 NNW 1013,3 - 0,0
27.05.2018 17:00:00 20,2 17,0 3 1 15 8 NW 1013,8 - 0,0
27.05.2018 16:00:00 20,7 17,7 4 2 14 8 NW 1013,8 - 0,0
27.05.2018 15:00:00 19,4 17,4 9 5 21 11 E 1014,7 - 0,0
27.05.2018 14:00:00 19,7 17,7 16 9 22 12 N 1014,1 12 0,0
27.05.2018 13:00:00 20,6 17,6 12 6 21 11 N 1014,7 - 0,0
27.05.2018 12:00:00 22,9 19,1 18 10 29 16 NNE 1014,8 - 0,0
27.05.2018 11:00:00 20,8 16,4 27 15 47 25 NNW 1014,9 12 0,0
27.05.2018 10:00:00 19,7 16,3 32 18 41 22 NW 1014,6 - 0,0
27.05.2018 09:00:00 18,5 16,3 24 13 38 20 NW 1014,8 - 0,0
27.05.2018 08:00:00 17,2 15,9 31 17 35 19 NW 1014,6 8 0,0
27.05.2018 07:00:00 16,7 15,9 24 13 30 16 NW 1014,6 - 0,0
27.05.2018 06:00:00 15,6 14,1 16 9 21 12 NW 1015,0 - 0,0
27.05.2018 05:00:00 17,5 16,7 3 2 13 7 ESE 1014,5 6 0,0
27.05.2018 04:00:00 16,9 16,3 13 7 22 12 S 1014,9 - 0,0
27.05.2018 03:00:00 17,3 16,8 13 7 28 15 SSE 1015,6 - 0,0
27.05.2018 02:00:00 17,4 16,9 16 9 23 13 SSE 1016,2 - 0,0
27.05.2018 01:00:00 17,8 17,3 24 13 29 15 SSE 1016,5 - 0,0
27.05.2018 00:00:00 17,4 16,9 21 11 26 14 SE 1016,3 - 0,0
26.05.2018 23:00:00 17,5 16,9 16 9 33 18 SSE 1016,2 - 0,2
26.05.2018 22:00:00 17,9 17,1 29 16 35 19 SE 1015,7 - 0,0
26.05.2018 21:00:00 18,2 17,2 30 16 36 20 SE 1015,1 - 0,0
26.05.2018 20:00:00 18,6 17,1 36 19 45 24 SSE 1015,1 20 0,0
26.05.2018 19:00:00 18,9 16,9 43 23 51 28 SSE 1015,0 - 0,0
26.05.2018 18:00:00 19,7 16,5 45 25 50 27 SE 1015,2 - 0,0
26.05.2018 17:00:00 20,5 15,5 46 25 51 27 SE 1015,5 20 0,0
26.05.2018 16:00:00 21,0 13,9 41 22 44 24 SSE 1016,0 - 0,0
26.05.2018 15:00:00 21,5 12,9 37 20 44 24 SSE 1016,1 - 0,0
26.05.2018 14:00:00 22,1 13,4 24 13 34 18 SSE 1016,5 25 0,0
26.05.2018 13:00:00 21,6 14,5 29 16 38 20 SE 1016,7 - 0,0
26.05.2018 12:00:00 20,7 16,5 29 15 32 17 SSE 1017,1 - 0,0
26.05.2018 11:00:00 20,6 15,8 25 14 32 17 SSE 1016,8 - 0,0
26.05.2018 10:00:00 20,0 15,6 29 15 36 19 S 1016,9 - 0,0
26.05.2018 09:00:00 18,2 16,2 28 15 47 26 S 1016,5 - 0,0
26.05.2018 08:00:00 17,4 16,4 34 18 45 24 SSE 1015,6 12 0,2
26.05.2018 07:00:00 16,8 15,7 26 14 48 26 S 1016,4 - 0,4
26.05.2018 06:00:00 17,3 15,5 29 16 41 22 SE 1015,3 - 1,0
26.05.2018 05:00:00 18,5 13,8 24 13 34 19 SE 1015,3 18 0,0
26.05.2018 04:00:00 21,2 10,9 15 8 62 33 S 1015,9 - 0,0
26.05.2018 03:00:00 20,6 10,4 21 11 41 22 S 1014,7 - 0,0
26.05.2018 02:00:00 21,2 9,4 31 17 48 26 S 1014,6 - 0,0
26.05.2018 01:00:00 20,9 10,4 38 21 53 29 S 1014,7 - 0,0
26.05.2018 00:00:00 20,0 11,7 41 22 53 28 SSW 1014,5 - 0,0
25.05.2018 23:00:00 20,0 11,0 30 16 45 24 S 1014,9 - 0,0
25.05.2018 22:00:00 18,4 12,8 30 16 48 26 S 1014,7 - 0,0
25.05.2018 21:00:00 18,7 13,1 42 23 53 28 SSE 1014,2 - 0,0
25.05.2018 20:00:00 18,2 15,4 50 27 52 28 SSE 1013,9 15 0,0
25.05.2018 19:00:00 18,2 14,7 44 24 50 27 SSE 1014,0 - 0,0
25.05.2018 18:00:00 18,4 14,7 41 22 48 26 SSE 1014,7 - 0,0
25.05.2018 17:00:00 19,4 14,9 41 22 54 29 SSE 1014,9 15 0,0
25.05.2018 16:00:00 19,2 15,3 43 23 49 26 SSE 1015,0 - 0,0
25.05.2018 15:00:00 19,5 13,0 31 17 50 27 SSE 1015,9 - 0,0
25.05.2018 14:00:00 18,6 13,2 36 19 46 25 SE 1015,4 - 0,0
25.05.2018 13:00:00 19,1 15,0 34 18 42 23 SSE 1016,4 - 0,0
25.05.2018 12:00:00 18,5 15,4 42 23 46 25 SE 1016,0 - 0,0
25.05.2018 11:00:00 19,3 15,8 42 23 48 26 SSE 1015,5 - 0,0
25.05.2018 10:00:00 18,1 16,6 16 9 29 16 SE 1016,3 - 0,0
25.05.2018 09:00:00 16,8 16,0 9 5 12 6 SSE 1016,4 - 0,0
25.05.2018 08:00:00 16,5 15,5 11 6 18 10 S 1016,3 - 0,0
25.05.2018 07:00:00 16,6 15,3 11 6 16 9 SSE 1015,9 - 0,0
25.05.2018 06:00:00 16,3 14,5 11 6 14 8 S 1015,6 - 0,0
25.05.2018 05:00:00 16,6 15,3 3 1 9 5 ENE 1016,0 - 0,0
25.05.2018 04:00:00 16,6 15,3 7 4 14 8 NNW 1016,2 - 0,0
25.05.2018 03:00:00 16,9 15,8 13 7 23 12 NW 1016,6 - 0,0
25.05.2018 02:00:00 17,0 16,0 14 8 23 12 NW 1016,6 - 0,2
25.05.2018 01:00:00 17,2 16,2 16 9 22 12 NW 1016,9 - 0,0
25.05.2018 00:00:00 17,4 16,4 18 10 23 12 NW 1016,9 - 0,0
24.05.2018 23:00:00 17,4 16,3 16 9 19 10 NW 1017,1 - 0,0
24.05.2018 22:00:00 17,5 16,4 14 8 22 12 NW 1016,8 - 0,0
24.05.2018 21:00:00 17,9 16,2 20 11 23 12 NNW 1016,4 - 0,0
24.05.2018 20:00:00 18,7 16,3 3 2 13 7 ESE 1016,2 10 0,0
24.05.2018 19:00:00 18,8 16,8 11 6 18 10 SSE 1016,0 - 0,0
24.05.2018 18:00:00 19,1 16,9 14 7 17 9 SSE 1016,2 - 0,0
24.05.2018 17:00:00 19,6 17,2 11 6 16 9 SE 1016,3 - 0,0
24.05.2018 16:00:00 19,9 17,1 7 4 14 7 E 1016,7 - 0,0
24.05.2018 15:00:00 20,6 17,8 7 4 15 8 SE 1016,9 - 0,0
24.05.2018 14:00:00 20,9 17,9 6 3 10 5 NNE 1017,3 - 0,0
24.05.2018 13:00:00 19,0 17,0 4 2 14 8 ENE 1017,7 - 0,0
24.05.2018 12:00:00 19,4 16,8 8 4 13 7 SE 1017,8 - 0,0
24.05.2018 11:00:00 19,4 16,2 6 3 11 6 ESE 1017,5 6 0,0
24.05.2018 10:00:00 19,8 16,8 5 3 15 8 SE 1017,6 - 0,0
24.05.2018 09:00:00 18,6 15,8 4 2 12 7 SSE 1017,7 - 0,0
24.05.2018 08:00:00 18,6 16,6 3 2 24 13 NW 1017,4 12 0,0
24.05.2018 07:00:00 16,9 15,8 22 12 31 17 NW 1017,0 - 0,0
24.05.2018 06:00:00 16,7 15,9 24 13 31 17 NW 1016,6 - 0,0
24.05.2018 05:00:00 17,1 16,1 23 12 31 17 NW 1016,7 - 0,0
24.05.2018 04:00:00 17,2 16,1 21 12 25 13 NW 1016,5 - 0,0
24.05.2018 03:00:00 17,5 15,8 19 10 26 14 NNW 1016,7 - 0,0
24.05.2018 02:00:00 17,7 14,6 11 6 16 9 NNW 1017,0 - 0,0
24.05.2018 01:00:00 18,8 14,3 11 6 24 13 W 1017,2 - 0,0
24.05.2018 00:00:00 20,3 13,0 3 2 30 16 WNW 1017,4 - 0,0
23.05.2018 23:00:00 20,1 12,3 8 4 29 16 NW 1017,7 - 2,0
23.05.2018 22:00:00 22,7 12,0 17 9 33 18 WNW 1017,3 - 0,0
23.05.2018 21:00:00 22,3 12,3 21 11 36 19 SSW 1016,2 - 0,0
23.05.2018 20:00:00 21,5 13,7 24 13 40 22 S 1015,8 - 0,0
23.05.2018 19:00:00 22,7 13,2 34 18 46 25 S 1015,3 - 0,0
23.05.2018 18:00:00 21,7 13,8 32 17 40 22 S 1015,6 - 0,0
23.05.2018 17:00:00 19,5 14,9 29 15 52 28 S 1016,2 15 0,0
23.05.2018 16:00:00 19,4 14,9 42 23 47 25 SSE 1016,1 - 0,0
23.05.2018 15:00:00 19,0 16,2 29 15 33 18 SSE 1017,3 - 0,0
23.05.2018 14:00:00 19,6 16,2 19 10 21 12 SSE 1017,5 - 0,0
23.05.2018 13:00:00 19,3 15,8 13 7 22 12 SSE 1017,7 - 0,0
23.05.2018 12:00:00 19,6 15,3 13 7 18 10 SSE 1017,7 - 0,0
23.05.2018 11:00:00 20,2 13,6 8 5 14 7 E 1017,8 - 0,0
23.05.2018 10:00:00 19,6 13,1 3 2 11 6 ESE 1017,6 - 0,0
23.05.2018 09:00:00 18,1 12,8 7 4 11 6 NNE 1017,2 - 0,0
23.05.2018 08:00:00 18,7 14,0 5 3 8 4 ENE 1016,8 - 0,0
23.05.2018 07:00:00 17,0 13,1 4 2 13 7 SW 1016,6 - 0,0
23.05.2018 06:00:00 16,3 12,8 4 2 20 11 N 1016,1 - 0,0
23.05.2018 05:00:00 15,5 13,0 16 9 19 11 NW 1016,0 - 0,0
23.05.2018 04:00:00 17,9 11,5 16 9 26 14 NW 1015,8 - 0,0
23.05.2018 03:00:00 17,3 12,6 16 9 24 13 NW 1016,2 - 0,0
23.05.2018 02:00:00 17,5 13,2 17 9 27 15 NW 1016,2 - 0,0
23.05.2018 01:00:00 18,2 13,5 22 12 35 19 NNW 1016,1 - 0,0
23.05.2018 00:00:00 20,5 11,7 24 13 32 17 WNW 1015,7 - 0,0
22.05.2018 23:00:00 20,4 11,3 11 6 22 12 WNW 1015,5 - 0,0
22.05.2018 22:00:00 21,2 11,2 5 3 21 11 WNW 1014,7 - 0,0
22.05.2018 21:00:00 20,6 12,8 16 8 24 13 SW 1014,0 - 0,0
22.05.2018 20:00:00 22,1 12,9 14 7 22 12 SSW 1013,9 20 0,0
22.05.2018 19:00:00 21,3 13,2 14 8 19 10 SW 1013,5 - 0,0
22.05.2018 18:00:00 22,1 13,4 6 3 27 15 SSE 1013,4 - 0,0
22.05.2018 17:00:00 21,4 15,0 13 7 45 24 WNW 1013,7 - 0,0
22.05.2018 16:00:00 20,1 14,0 27 15 39 21 SSW 1013,6 - 0,0
22.05.2018 15:00:00 18,1 15,2 26 14 30 16 SSE 1013,7 - 0,0
22.05.2018 14:00:00 18,0 15,4 23 12 28 15 SSE 1014,0 - 0,0
22.05.2018 13:00:00 18,3 15,2 16 8 21 12 SSE 1014,1 - 0,0
22.05.2018 12:00:00 18,9 15,2 8 4 13 7 ENE 1014,1 - 0,0
22.05.2018 11:00:00 20,1 15,7 9 5 18 10 NNE 1013,8 18 0,0
22.05.2018 10:00:00 18,6 15,3 18 10 18 10 NW 1013,6 - 0,0
22.05.2018 09:00:00 18,7 15,6 10 5 22 12 NW 1013,5 - 0,0
22.05.2018 08:00:00 17,1 14,7 15 8 20 11 NW 1013,3 - 0,0
22.05.2018 07:00:00 16,2 14,4 11 6 18 10 NNW 1013,1 - 0,0

tt = Température de l'air
td = dewpoint
ff = Vitesse du vent
fx = gusts
dd = Direction du vent
ppp = reduced air pressure
vv = visibility
rr = Quantités de précipitations

stations d'obs. à proximité